Location: Asbach
(48.5226°N, 10.7301°E)
Time: 07:15:09
(UTC+00:00)

Daily predictions for brighter satellites

Satellite Brightness Start Highest point End
(mag) Time Altitude Azimuth Time Altitude Azimuth Time Altitude Azimuth
Cosmos 1538 Rocket 4.2 19:30:56 10° SSW 19:36:12 80° WNW 19:41:26 10° NNE
NOSS 0 Rocket 4.5 19:30:18 10° SW 19:36:25 66° WNW 19:42:36 10° NNE
COSMOS 2428 4.4 19:31:06 10° WSW 19:36:25 40° NW 19:41:47 10° NNE
CZ-4C R/B 3.5 19:32:55 10° NNE 19:36:30 47° E 19:40:14 10° S
MetOp-B 4.3 19:31:54 10° SSE 19:37:09 60° ENE 19:42:26 10° N
Cosmos 2056 Rocket 4.2 19:32:33 10° NNW 19:37:44 44° ENE 19:42:50 10° SE
Lacrosse 5 2.0 19:33:22 10° NW 19:38:30 86° NE 19:43:38 10° SE
Ariane Rocket 4.0 19:37:16 10° SE 19:41:45 33° ENE 19:46:16 10° N
USA 276 1.8 19:39:37 10° WNW 19:41:46 55° N 19:43:58 10° E
Meteor 1-5 Rocket 4.4 19:36:31 10° N 19:42:27 65° ENE 19:48:11 10° SSE
IRS-1C Rocket 4.3 19:37:46 10° SSE 19:42:56 61° ENE 19:48:09 10° N
CZ-4 R/B 3.9 19:40:47 10° SW 19:43:24 18° W 19:46:02 10° NW
Cosmos 44 3.7 19:38:54 10° NNW 19:43:44 51° NE 19:48:14 10° ESE
Lacrosse 5 rocket 1.5 19:39:52 10° SSW 19:44:03 53° SE 19:48:11 10° ENE
Cosmos 2369 Rocket 3.1 19:40:01 10° NNW 19:45:11 36° NE 19:50:20 10° ESE
Cosmos 1812 Rocket 3.6 19:40:53 10° S 19:45:17 72° E 19:49:41 10° NNE
ATLAS 5 CENTAUR R/B 4.0 19:43:01 10° WNW 19:47:11 24° WSW 19:51:59 10° S
Cosmos 2221 3.3 19:46:47 10° SSE 19:50:41 35° E 19:54:38 10° NNE
Cosmos 2344 4.2 19:42:38 10° NW 19:50:59 82° SW 20:02:36 10° SSE
Cosmos 2084 3.9 19:50:35 10° NNW 19:54:12 43° NE 19:57:45 10° ESE
Resurs 01 Rocket 3.3 19:50:39 10° SSW 19:54:38 32° W 19:58:40 10° NNW
Cosmos 2237 Rocket 2.9 19:53:13 10° SW 19:58:51 60° WNW 20:04:30 10° NNE
BREEZE-M DEB (TANK) 2.2 19:56:54 10° SW 20:00:03 43° SSE 20:02:04 10° E
USA 308 3.7 19:58:19 10° W 20:00:29 22° SW 20:02:55 11° SSE
Cosmos 1378 2.7 19:57:57 10° S 20:01:12 70° E 20:04:29 10° NNE
ATLAS 3B R/B 3.1 19:54:33 10° NW 20:02:27 86° SW 20:09:47 12° SE
BREEZE-M DEB (TANK) 3.9 19:59:47 10° SW 20:03:18 48° SSE 20:12:09 10° E
Cosmos 921 Rocket 3.9 20:01:17 10° SSE 20:05:12 31° E 20:09:11 10° NE
Aureole 3 Rocket 3.0 20:02:58 10° N 20:06:31 60° E 20:10:56 11° SSE
GEOS 3 Rocket 4.0 20:02:39 10° NE 20:07:32 41° ESE 20:12:21 10° SSW
SPOT 5 2.8 20:02:57 10° S 20:07:39 79° WSW 20:12:09 10° NNW
Cosmos 923 Rocket 4.0 20:02:20 10° SSW 20:07:39 87° ESE 20:13:02 10° NNE
USA 306 4.1 20:05:28 10° WNW 20:08:56 35° N 20:12:32 10° ENE
Landsat 4 3.6 20:08:44 14° SSE 20:11:39 60° ENE 20:15:07 10° N
ARGOS Delta rocket 4.0 20:09:57 11° SSE 20:14:55 72° ENE 20:19:49 10° N
Cosmos 1943 4.4 20:12:15 13° SE 20:15:44 23° ESE 20:20:02 10° NE
Okean O Rocket 3.8 20:13:04 10° SSW 20:16:37 23° W 20:20:11 10° NW
USA 234 4.4 20:11:30 10° ENE 20:17:35 42° N 20:23:39 10° WNW
Terra 1.8 20:13:56 13° SSE 20:18:09 73° ENE 20:22:52 10° N
Cosmos 1656 Rocket 3.6 20:17:31 10° NNW 20:22:59 79° ENE 20:27:23 16° SSE
Cosmos 1371 Rocket 4.1 20:18:08 10° NNW 20:23:30 85° WSW 20:28:03 15° SSE
ERS-1 Rocket 3.0 20:18:56 12° SSE 20:23:40 87° WSW 20:28:44 10° NNW
ATLAS 2AS CENTAUR R/B 3.6 20:19:17 10° WSW 20:26:31 57° NW 20:33:30 10° NE
Cosmos 1842 Rocket 4.3 20:24:38 17° SSE 20:27:37 37° E 20:31:43 10° NNE
SPOT 3 Rocket 3.6 20:24:07 15° SSE 20:28:22 72° ENE 20:33:31 10° N
Meteor 1-14 Rocket 4.4 20:22:49 10° N 20:28:37 66° ENE 20:33:21 16° SSE
USA 59 Rocket 2.3 20:28:59 10° N 20:31:02 14° NNE 20:33:20 10° ENE
USA 281 3.3 20:27:32 16° SE 20:33:01 74° ENE 20:39:37 10° NNW
Cosmos 1943 Rocket 3.9 20:30:11 10° NW 20:34:47 26° WSW 20:39:21 10° SSW
Cosmos 1420 Rocket 4.5 20:30:46 10° NNW 20:35:59 58° WSW 20:40:30 14° S
Cosmos 1743 2.5 20:35:21 10° NNW 20:38:59 81° W 20:41:25 20° S
ISS -3.1 20:37:36 10° WNW 20:40:52 54° N 20:43:46 13° E
ARIANE 5 R/B 4.4 20:38:36 12° ESE 20:41:09 20° ENE 20:44:15 10° NNE
USA 245 3.4 20:42:39 19° SSW 20:43:48 32° W 20:45:52 10° NNW
Cosmos 2279 Rocket 4.0 20:40:17 10° N 20:46:28 67° ENE 20:50:54 20° SSE
Cosmos 2297 3.9 20:41:32 10° NNW 20:47:15 70° WSW 20:51:24 19° SSE
Cosmos 1634 Rocket 4.1 20:41:06 10° N 20:47:26 84° W 20:52:38 16° S
Cosmos 2112 Rocket 4.4 20:44:49 10° SSW 20:50:07 68° WNW 20:55:25 10° NNE
USA 290 4.4 20:48:51 10° NW 20:51:19 20° WSW 20:53:34 11° SSW
Cosmos 1766 Rocket 4.1 20:47:42 10° NNW 20:52:04 58° W 20:55:32 16° S
USA 229 DEB 4.0 20:48:31 10° NW 20:55:57 89° SW 21:01:46 21° SE
USA 229 4.0 20:48:37 10° NW 20:56:03 89° SW 21:01:53 21° SE
Cosmos 1726 1.7 20:54:25 10° N 20:57:33 65° E 20:58:35 37° SSE
Spot 2 Rocket 3.9 20:54:06 16° S 20:58:03 58° W 21:03:03 10° NNW
Cosmos 1680 Rocket 4.5 20:55:20 10° SW 21:00:27 49° WNW 21:05:35 10° NNE
Meteor 2-6 Rocket 4.3 20:58:32 10° SSW 21:04:11 81° WNW 21:09:43 10° N
Cosmos 1743 Rocket 4.2 21:04:52 10° N 21:09:02 41° ENE 21:10:51 27° SE
MetOp-A 3.7 21:11:24 28° S 21:13:45 80° WSW 21:18:30 10° NNW
Sich 1 3.4 21:09:50 10° N 21:14:06 50° ENE 21:15:51 31° SE
USA 276 2.7 21:13:49 10° W 21:15:14 31° WSW 21:15:14 31° WSW
SL-16 R/B 3.1 21:10:32 10° SW 21:16:01 49° NW 21:21:33 10° NNE
Cosmos 2263 4.3 21:11:05 10° NNW 21:16:46 72° WSW 21:20:00 26° SSE
MOS 1 Rocket 4.1 21:13:56 19° SSW 21:17:23 52° W 21:22:31 10° NNW
Cosmos 1603 4.1 21:15:41 26° SSE 21:18:23 44° ESE 21:23:45 10° NE
Ariane Rocket 4.1 21:16:49 15° SSW 21:20:36 38° W 21:25:21 10° NNW
Cosmos 1536 2.7 21:16:52 10° N 21:20:45 86° W 21:22:15 36° S
Cosmos 1975 4.4 21:17:38 10° NNE 21:20:47 22° ENE 21:21:58 20° E
Lacrosse 5 3.5 21:17:01 10° WNW 21:20:58 23° SW 21:23:08 18° SSW
Cosmos 2180 Rocket 4.4 21:15:43 10° N 21:21:58 88° E 21:25:40 26° S
Lacrosse 5 rocket 2.8 21:18:29 10° W 21:22:33 41° NNW 21:26:32 10° NE
USA 267 4.1 21:17:20 10° ENE 21:22:34 25° SE 21:23:23 24° SE
Cosmos 1452 Rocket 3.5 21:18:52 10° NNW 21:24:09 85° WSW 21:26:45 31° SSE
Cosmos 1408 Rocket 3.6 21:19:41 10° N 21:24:09 82° W 21:26:12 32° S
Spot 1 4.3 21:20:38 10° N 21:24:39 62° WNW 21:27:37 18° SSW
Meteor 1-27 Rocket 3.8 21:22:18 28° SSE 21:25:06 59° E 21:30:32 10° NNE
Okean 1 3.1 21:25:59 40° S 21:27:16 73° E 21:31:08 10° NNE
Cosmos 1340 3.0 21:24:58 10° N 21:28:15 43° ENE 21:28:49 38° ESE
Cosmos 2369 Rocket 2.9 21:24:01 10° NW 21:29:18 44° WSW 21:32:23 23° SSW
Cosmos 1626 4.2 21:31:50 12° ENE 21:31:50 12° ENE 21:32:47 10° ENE
USA 306 3.1 21:39:20 10° WNW 21:43:10 59° NNE 21:45:08 26° E
Meteor 2-17 Rocket 4.4 21:50:27 29° S 21:53:47 88° E 21:59:53 10° N
SL-8 R/B 3.6 21:50:52 10° WSW 21:55:31 58° SSE 22:00:14 10° E
Terra 4.2 21:53:32 10° SW 21:56:17 15° W 21:59:01 10° NW
Cosmos 1500 Rocket 4.1 21:52:15 10° NNW 21:56:26 50° W 21:57:58 34° SSW
Cosmos 1328 Rocket 4.4 21:56:13 31° ESE 21:56:51 33° E 22:00:45 10° NNE
Cosmos 1943 3.5 21:53:56 12° SW 21:59:15 66° WNW 22:04:55 10° NNE
Cosmos 1733 3.3 21:56:09 10° NNW 21:59:36 56° W 22:00:07 49° SW
USA 234 3.8 21:53:35 10° E 21:59:58 57° NNE 22:06:21 10° NW
Spot 4 4.2 21:58:25 35° SE 22:00:06 54° ENE 22:04:45 10° N
ALOS 2 3.6 21:58:50 29° ESE 22:00:16 37° ENE 22:04:19 10° N
Meteor 2-4 Rocket 4.0 22:00:28 35° SSE 22:02:42 55° E 22:08:30 10° NNE
H-2A R/B 2.4 22:02:30 51° SE 22:03:27 75° ENE 22:07:40 10° N
Cosmos 1805 Rocket 4.1 22:01:08 10° NNW 22:05:22 50° W 22:06:48 35° SW
IRIDIUM 104 4.3 22:01:03 10° N 22:06:18 85° E 22:08:14 40° S
Lacrosse 4 Rocket 2.9 22:04:58 10° NNW 22:08:32 28° NE 22:10:34 19° E
Cosmos 1151 Rocket 3.0 22:08:37 44° SSW 22:09:56 80° W 22:14:19 10° N
Cosmos 1092 Rocket 4.0 22:10:25 35° SSE 22:13:07 70° E 22:19:25 10° NNE
Cosmos 1666 Rocket 3.5 22:09:07 10° N 22:13:27 71° E 22:14:23 52° SE
Cosmos 1428 Rocket 4.4 22:11:50 33° S 22:14:48 90° WNW 22:20:57 10° N
IRIDIUM 114 4.3 22:10:12 10° N 22:15:27 81° W 22:17:22 40° S
Cosmos 1302 Rocket 4.0 22:10:20 10° NNW 22:15:31 75° WSW 22:17:13 43° S
SAR-Lupe-3 4.4 22:15:44 68° ESE 22:15:58 72° ENE 22:19:29 10° N
Cosmos 1656 4.2 22:11:01 10° NNW 22:16:20 50° NE 22:19:03 27° ESE
Cosmos 1633 Rocket 3.2 22:12:45 10° N 22:17:09 64° ENE 22:18:08 49° SE
ARIANE 5 R/B 3.0 22:16:04 41° SSW 22:17:12 53° W 22:21:27 10° NNW
ISS -2.7 22:14:18 10° WNW 22:16:32 35° W 22:16:32 35° W
Cosmos 1340 Rocket 3.3 22:17:22 37° SW 22:18:34 54° WNW 22:22:31 10° N
USA 59 Rocket 0.2 22:17:23 10° NW 22:21:12 68° NE 22:22:59 37° ESE
NOSS 2-1 (E) 3.7 22:18:14 10° NW 22:22:04 70° NE 22:23:49 37° ESE
Cosmos 1992 Rocket 4.1 22:18:42 10° NNW 22:23:56 69° ENE 22:25:48 39° SE
IRIDIUM 103 4.5 22:19:23 10° N 22:24:36 68° W 22:26:30 39° SSW
CZ-2C R/B 4.2 22:21:00 10° N 22:25:26 53° WNW 22:27:23 30° SW
H-2A R/B 3.5 22:21:54 10° NE 22:25:31 24° E 22:25:53 24° ESE
Cosmos 1697 Rocket 4.2 22:21:59 10° NNW 22:26:57 30° NE 22:31:17 13° ESE
Cosmos 614 Rocket 3.9 22:27:45 45° S 22:29:16 71° ESE 22:34:29 10° NNE
Cosmos 2195 Rocket 4.5 22:27:33 33° SSW 22:30:28 77° W 22:36:37 10° N
Cosmos 1766 3.5 22:26:55 10° N 22:30:35 51° ENE 22:30:52 50° E
Cosmos 1980 Rocket 4.4 22:27:54 10° N 22:32:05 20° NE 22:36:15 10° E
NOSS 2-1 (D) 3.5 22:29:51 10° NW 22:33:41 89° ENE 22:34:55 49° SE
Cosmos 1707 4.5 22:34:21 20° E 22:34:21 20° E 22:36:55 10° NE
Cosmos 1470 4.0 22:31:10 10° NNE 22:34:25 27° ENE 22:34:54 26° E
Cosmos 1805 4.0 22:36:23 10° NNW 22:39:50 37° W 22:40:09 36° WSW
Spot 2 4.4 22:50:57 49° SSW 22:51:53 60° WSW 22:56:37 10° NNW
Cosmos 1975 3.8 22:53:11 10° NNW 22:56:45 33° W 22:57:09 32° WSW
NOSS 3-3 (A) 4.0 22:59:40 43° SSE 23:00:57 52° ESE 23:07:04 10° NE
Lacrosse 5 rocket 3.7 22:58:11 10° WNW 23:01:44 25° N 23:05:10 10° NE
Cosmos 1626 2.7 23:04:41 39° WNW 23:04:41 39° WNW 23:07:39 10° N
Cosmos 1269 Rocket 3.9 23:04:35 49° S 23:06:01 77° ESE 23:11:19 10° NNE
USA 267 3.1 22:59:41 10° ENE 23:06:15 78° SE 23:10:42 22° SW
Cosmos 1140 Rocket 4.3 23:05:26 32° SE 23:06:23 35° ESE 23:11:06 10° NE
Cosmos 1674 2.6 23:07:50 67° ENE 23:07:50 67° ENE 23:11:05 10° NNE
NOSS 2-1 (C) 3.9 23:05:04 10° NW 23:08:54 50° SW 23:09:08 49° SW
Cosmos 2082 Rocket 4.2 23:08:47 13° ESE 23:10:18 14° E 23:13:10 10° ENE
PSLV R/B 3.6 23:08:30 10° NNE 23:13:08 83° ESE 23:13:59 59° S
USA 306 4.1 23:13:14 10° WNW 23:15:15 25° W 23:15:15 25° W
Cosmos 1833 Rocket 3.0 23:17:10 42° SSE 23:18:32 51° ESE 23:23:57 10° NE
Cosmos 44 Rocket 4.1 23:18:01 10° NNW 23:22:52 49° NE 23:26:07 19° ESE
Cosmos 2315 Rocket 4.4 23:18:22 10° N 23:24:34 58° ENE 23:27:37 30° SE
S3M 4.0 23:19:21 10° N 23:25:47 83° E 23:28:27 38° SSE
NOSS 3-3 (C) 3.7 23:26:06 43° SSW 23:27:59 74° SE 23:34:23 10° NE
SL-24 R/B 4.4 23:25:54 10° N 23:30:17 65° WNW 23:31:32 45° SW
Cosmos 2285 Rocket 4.3 23:29:13 37° SSE 23:31:24 54° ESE 23:37:33 10° NNE
Cosmos 1515 Rocket 3.9 23:31:37 47° WSW 23:32:26 56° WNW 23:36:43 10° N
GP-B 3.1 23:30:39 10° N 23:35:04 69° E 23:35:54 54° SSE
Cosmos 1400 Rocket 4.2 23:34:57 25° ESE 23:35:31 26° E 23:38:53 10° NE
ALOS 2 3.9 23:36:13 25° WSW 23:36:41 26° W 23:40:23 10° NW
Cosmos 1553 Rocket 4.5 23:31:46 10° NNW 23:37:31 46° W 23:39:39 33° SW
SL-8 R/B 3.6 23:33:06 10° W 23:37:53 89° N 23:42:41 10° E
Cosmos 1869 Rocket 3.4 23:37:51 10° N 23:42:13 88° W 23:42:58 61° S
USA 234 3.2 23:38:50 25° SE 23:42:56 67° SW 23:49:29 10° WNW
Meteor 1-13 Rocket 4.3 23:41:22 41° S 23:43:33 82° E 23:49:30 10° NNE
Cosmos 1733 Rocket 4.1 23:41:17 10° N 23:45:21 39° ENE 23:46:57 28° ESE
Lacrosse 4 Rocket 2.1 23:43:07 10° NW 23:46:29 36° W 23:46:29 36° W
Cosmos 1346 Rocket 4.5 23:50:50 10° N 23:54:11 27° ENE 23:55:56 20° ESE
